raspati2026-09-02T17:23:11+07:00Fitur YECVT: Begini Jadinya Kalau CVT Motor Bisa “Diperintah”raspati2026-09-02T17:23:11+07:0003 Sep 2026|
raspati2026-09-02T13:05:05+07:00Aftersales Kartu Servis Motor Honda Kini Digital, Bisa Dicek Lewat Aplikasi Wandaraspati2026-09-02T13:05:05+07:0003 Sep 2026|
raspati2026-09-02T15:18:29+07:00World Premiere Selain Jago Off-Road, All-New Pajero Kini Punya Banyak Fitur Pintarraspati2026-09-02T15:18:29+07:0002 Sep 2026|
raspati2026-09-02T14:49:45+07:00World Premiere Mesin Baru Sampai 4WD, Begini Cara Mitsubishi Racik All-New Pajeroraspati2026-09-02T14:49:45+07:0002 Sep 2026|
raspati2026-09-02T14:51:07+07:00World Premiere Wajah Baru Mitsubishi Pajero, Terinspirasi Kendo Sampai Kimekomiraspati2026-09-02T14:51:07+07:0002 Sep 2026|
raspati2026-09-02T14:51:46+07:00World Premiere Absen 5 Tahun, Mitsubishi Pajero Resmi Kembali Ke Pasar Globalraspati2026-09-02T14:51:46+07:0002 Sep 2026|
raspati2026-09-01T20:39:34+07:00Brand Activity Yamaha Lelang Fazzio Modifikasi, Dananya Buat Korban Bencana NTTraspati2026-09-01T20:39:34+07:0002 Sep 2026|
raspati2026-09-01T01:36:05+07:00Mobil Listrik Volkswagen ID. Buzz: Nostalgia Kombi Dalam Wujud Mobil Listrikraspati2026-09-01T01:36:05+07:0001 Sep 2026|
raspati2026-09-01T01:31:19+07:00Brand Appreciation 15 Tahun Jadi Driver Gojek, 70 Mitra Driver Legend Berangkat Umrahraspati2026-09-01T01:31:19+07:0001 Sep 2026|
raspati2026-09-02T12:08:10+07:00FMSCT Thailand Motocross Beda 0,266 Detik, Zidane dan Diva Saling Tempel Di Kualifikasi Koratraspati2026-09-02T12:08:10+07:0003 Sep 2026|
Ted Diesta2026-09-02T11:51:25+07:00MotoGP Atasi 3 Kendala Utama, Aprilia Tetap Podium Dan P5 Di AragonTed Diesta2026-09-02T11:51:25+07:0002 Sep 2026|
raspati2026-09-01T21:04:57+07:00Inspirasi Modifikasi Skutik Yamaha Grand Filano Gaya Koboi, Karya Dealer Bali Raih Best Decalraspati2026-09-01T21:04:57+07:0002 Sep 2026|
raspati2026-09-01T20:58:07+07:00Inspirasi Modifikasi Skutik Yamaha Fazzio Bertema Astronaut, Warna Hijau-Ungu Jadi Ciri Khasraspati2026-09-01T20:58:07+07:0002 Sep 2026|
raspati2026-09-01T01:49:27+07:00Community Stylo Sound Ride: Saat Komunitas Motor Honda Bertemu Lifestyleraspati2026-09-01T01:49:27+07:0001 Sep 2026|
Ted Diesta2026-09-01T11:37:04+07:00Rally del Paraguay 2026 Tiga Kemenangan Beruntun Sami Pajari Di WRCTed Diesta2026-09-01T11:37:04+07:0001 Sep 2026|
raspati2026-08-31T03:29:02+07:00Community Gathering Yamaha Bawa MAXi Day 2026 Ke Palu, NMAX Neo Jadi Hadiah Utamaraspati2026-08-31T03:29:02+07:0031 Aug 2026|
raspati2026-08-31T02:15:29+07:00Moto3 Nihil Poin Di Aragon, Veda Ega Pratama Turun Ke P7 Klasemenraspati2026-08-31T02:15:29+07:0031 Aug 2026|
raspati2026-08-31T01:45:12+07:00MotoGP Sempat Blunder Saat Start, Marc Marquez Tetap Menang Di Aragonraspati2026-08-31T01:45:12+07:0031 Aug 2026|
Erotism Modifikasi | Mercedes-Benz E 250 2014 – CLEAN AND LOWTed Diesta2026-09-01T06:45:50+07:0001 Sep 2026|
Erotism Modifikasi | Mitsubishi Pajero Dakar 2022 — MENYIMPANGTed Diesta2026-08-29T14:50:22+07:0029 Aug 2026|
Erotism Modifikasi | Honda Accord 2013 – PENAKLUK PANTURATed Diesta2026-08-18T11:17:37+07:0019 Aug 2026|
Heavy Hitter Supercar | BRABUS BODO Cabriolet – TERBUKA DAN BRUTALraspati2026-08-17T22:24:48+07:0017 Aug 2026|
Erotism Modifikasi | Mercedes-Benz 320 E 1995 – TAMPAN MENAWANTed Diesta2026-08-14T08:33:21+07:0014 Aug 2026|
Erotism Modifikasi | Toyota Alphard 2018 – BERISI SEKSITed Diesta2026-08-13T20:49:14+07:0012 Aug 2026|
Erotism Modifikasi | Mercedes-Benz S 400 2016 – GESER SELERATed Diesta2026-08-13T20:48:52+07:0010 Aug 2026|
raspati2026-09-02T17:23:11+07:00Fitur YECVT: Begini Jadinya Kalau CVT Motor Bisa “Diperintah”raspati2026-09-02T17:23:11+07:0003 Sep 2026|
raspati2026-09-02T13:05:05+07:00Aftersales Kartu Servis Motor Honda Kini Digital, Bisa Dicek Lewat Aplikasi Wandaraspati2026-09-02T13:05:05+07:0003 Sep 2026|
raspati2026-09-02T15:18:29+07:00World Premiere Selain Jago Off-Road, All-New Pajero Kini Punya Banyak Fitur Pintarraspati2026-09-02T15:18:29+07:0002 Sep 2026|
raspati2026-09-02T14:49:45+07:00World Premiere Mesin Baru Sampai 4WD, Begini Cara Mitsubishi Racik All-New Pajeroraspati2026-09-02T14:49:45+07:0002 Sep 2026|
raspati2026-09-02T14:51:07+07:00World Premiere Wajah Baru Mitsubishi Pajero, Terinspirasi Kendo Sampai Kimekomiraspati2026-09-02T14:51:07+07:0002 Sep 2026|
raspati2026-09-02T14:51:46+07:00World Premiere Absen 5 Tahun, Mitsubishi Pajero Resmi Kembali Ke Pasar Globalraspati2026-09-02T14:51:46+07:0002 Sep 2026|
raspati2026-09-01T20:39:34+07:00Brand Activity Yamaha Lelang Fazzio Modifikasi, Dananya Buat Korban Bencana NTTraspati2026-09-01T20:39:34+07:0002 Sep 2026|
raspati2026-09-01T01:36:05+07:00Mobil Listrik Volkswagen ID. Buzz: Nostalgia Kombi Dalam Wujud Mobil Listrikraspati2026-09-01T01:36:05+07:0001 Sep 2026|
raspati2026-09-01T01:31:19+07:00Brand Appreciation 15 Tahun Jadi Driver Gojek, 70 Mitra Driver Legend Berangkat Umrahraspati2026-09-01T01:31:19+07:0001 Sep 2026|
Ted Diesta2026-09-01T08:12:58+07:00Daihatsu Kumpul Sahabat 2026 Batam Jalannya Pendek, Perlukah Mobil Hybrid?Ted Diesta2026-09-01T08:12:58+07:0001 Sep 2026|
Ted Diesta2026-09-01T07:51:14+07:00Strategi Harga Andalkan STARGAZER Cartenz, Hyundai Mengubah Cara Bermain Di Segmen MPVTed Diesta2026-09-01T07:51:14+07:0001 Sep 2026|
raspati2026-08-31T23:02:13+07:00Pameran Otomotif GIIAS Surabaya 2026 Cetak Rekor, Pasar Jawa Timur Makin Kuatraspati2026-08-31T23:02:13+07:0001 Sep 2026|
raspati2026-08-31T22:54:19+07:00Organisasi Otomotif Menang 14-7, Rudi Bratanusa Pimpin IMI DKI Jakarta 2026-2030raspati2026-08-31T22:54:19+07:0001 Sep 2026|
raspati2026-08-31T21:15:58+07:00Pameran Otomotif GIIAS Bandung 2026 Dan Besarnya Potensi Pasar Otomotif Jawa Baratraspati2026-08-31T21:15:58+07:0001 Sep 2026|
raspati2026-08-31T20:42:12+07:00Loyalty Program Cek HepiGo Poin Kini Bisa Lewat Chat Wanda, Ini Cara Dan Manfaatnyaraspati2026-08-31T20:42:12+07:0031 Aug 2026|
raspati2026-08-31T03:15:09+07:00Kontes Modifikasi CustoMAXi Yamaha 2026: Hadir Di 5 Kota, Semarang Jadi Pembukaraspati2026-08-31T03:15:09+07:0031 Aug 2026|
raspati2026-08-31T02:46:52+07:00Tips Mobil Hybrid Toyota Bisa Didorong Saat Parkir Paralel, Begini Caranyaraspati2026-08-31T02:46:52+07:0031 Aug 2026|
raspati2026-08-29T17:54:36+07:00Pameran Otomotif Autovaganza 2026: Tempat Keluarga Dan Komunitas Kumpul Barengraspati2026-08-29T17:54:36+07:0029 Aug 2026|
raspati2026-08-29T00:12:21+07:00Promo Hyundai STARGAZER Cartenz Turun Harga Di Surabaya, Mulai Rp 245 Jutaraspati2026-08-29T00:12:21+07:0029 Aug 2026|
FMSCT Thailand Motocross Beda 0,266 Detik, Zidane dan Diva Saling Tempel Di Kualifikasi Koratraspati2026-09-02T12:08:10+07:0003 Sep 2026|
MotoGP Atasi 3 Kendala Utama, Aprilia Tetap Podium Dan P5 Di AragonTed Diesta2026-09-02T11:51:25+07:0002 Sep 2026|
Inspirasi Modifikasi Skutik Yamaha Grand Filano Gaya Koboi, Karya Dealer Bali Raih Best Decalraspati2026-09-01T21:04:57+07:0002 Sep 2026|
Inspirasi Modifikasi Skutik Yamaha Fazzio Bertema Astronaut, Warna Hijau-Ungu Jadi Ciri Khasraspati2026-09-01T20:58:07+07:0002 Sep 2026|
Community Stylo Sound Ride: Saat Komunitas Motor Honda Bertemu Lifestyleraspati2026-09-01T01:49:27+07:0001 Sep 2026|
Rally del Paraguay 2026 Tiga Kemenangan Beruntun Sami Pajari Di WRCTed Diesta2026-09-01T11:37:04+07:0001 Sep 2026|
Community Gathering Yamaha Bawa MAXi Day 2026 Ke Palu, NMAX Neo Jadi Hadiah Utamaraspati2026-08-31T03:29:02+07:0031 Aug 2026|
Moto3 Nihil Poin Di Aragon, Veda Ega Pratama Turun Ke P7 Klasemenraspati2026-08-31T02:15:29+07:0031 Aug 2026|
MotoGP Sempat Blunder Saat Start, Marc Marquez Tetap Menang Di Aragonraspati2026-08-31T01:45:12+07:0031 Aug 2026|
Kejurnas Motocross Ducati Desmo450 MX Dominan Di Klaten, Sapu Podium MX1 Nasionalraspati2026-08-27T23:12:08+07:0028 Aug 2026|
Erotism Modifikasi | Mercedes-Benz E 250 2014 – CLEAN AND LOWTed Diesta2026-09-01T06:45:50+07:0001 Sep 2026|
Erotism Modifikasi | Mitsubishi Pajero Dakar 2022 — MENYIMPANGTed Diesta2026-08-29T14:50:22+07:0029 Aug 2026|
Erotism Modifikasi | Honda Accord 2013 – PENAKLUK PANTURATed Diesta2026-08-18T11:17:37+07:0019 Aug 2026|
Heavy Hitter Supercar | BRABUS BODO Cabriolet – TERBUKA DAN BRUTALraspati2026-08-17T22:24:48+07:0017 Aug 2026|
Erotism Modifikasi | Mercedes-Benz 320 E 1995 – TAMPAN MENAWANTed Diesta2026-08-14T08:33:21+07:0014 Aug 2026|
Erotism Modifikasi | Toyota Alphard 2018 – BERISI SEKSITed Diesta2026-08-13T20:49:14+07:0012 Aug 2026|
Erotism Modifikasi | Mercedes-Benz S 400 2016 – GESER SELERATed Diesta2026-08-13T20:48:52+07:0010 Aug 2026|
Erotism Modifikasi | Toyota Alphard 2015 – BERANI TURUNTed Diesta2026-08-27T23:59:28+07:0008 Aug 2026|
Heavy Hitter Modifikasi | BRABUS Shadow 1200 Sunreef Power Ultima 55 – BRUTALTed Diesta2026-07-31T08:46:25+07:0031 Jul 2026|
raspati2025-12-23T14:55:36+07:00DeepEnd TV Akira Nakai Turun tangan lagi | RWB X Surabaya Auto Gallery (Day 1)
azwan_hn2025-02-08T12:40:29+07:00DeepEnd TV DeepEnd Podcast Ep. 1 | Bongkar [sedikit] Rahasia Mekanik Kolektor 100 Mobil Surabaya
azwan_hn2024-11-05T07:27:52+07:00DeepEnd TV Kopdar Wajib Indonesian Starlet Club Jakarta | SI TUA STARLET MASIH MENGGEMA DI JALANAN